Theta_e
334 334 335 335 337 337 338 338 340 339 341 342 348 347 345 342 354 354 355 356 358 359 358 357 355 355 353 352 349 348 351 344 345 337 338 345 350 351 351 352 351 351 352 352
335 335 335 336 336 335 336 337 338 338 339 337 342 343 341 342 355 355 356 356 359 360 360 360 358 353 348 345 342 338 336 342 347 341 334 338 338 334 338 347 347 339 343 344
339 337 336 338 336 335 336 337 338 341 342 340 339 340 340 339 348 350 354 359 357 356 354 355 358 356 355 349 340 338 349 350 347 345 341 336 335 334 335 338 339 337 338 337
337 337 339 336 335 336 339 338 338 340 339 340 343 341 339 338 346 332 355 355 351 350 348 352 352 354 354 351 351 351 349 347 343 339 338 335 334 332 335 337 337 337 336 337
337 335 335 334 335 337 337 338 338 339 337 337 340 332 335 335 338 355 356 352 348 347 347 348 348 351 350 349 347 345 343 342 342 340 337 337 339 338 336 336 336 336 335 336
334 334 336 336 336 335 335 337 342 341 342 339 339 342 342 333 333 355 353 351 348 348 347 347 347 347 345 345 344 342 341 340 342 342 340 340 338 338 339 338 335 332 331 329
336 337 335 336 336 335 338 344 341 339 338 343 348 355 345 339 339 354 354 353 351 347 346 346 346 347 346 342 340 338 337 335 329 325 324 324 324 320 320 324 331 332 329 327
338 339 338 334 335 342 339 337 340 344 344 343 342 345 354 355 356 353 351 351 349 347 346 347 345 342 340 338 337 335 334 330 323 332 333 323 319 319 318 318 318 326 327 328
338 338 336 335 335 336 334 333 334 336 339 338 340 340 348 353 353 350 349 348 347 345 343 341 340 339 336 336 335 335 334 331 326 322 318 315 316 319 326 327 327 327 326 326
336 334 336 334 332 331 330 330 330 333 333 333 330 332 326 347 349 346 345 343 342 339 338 338 338 337 336 335 335 335 331 328 319 318 320 317 325 324 323 325 325 325 325 325
331 333 332 333 330 328 327 328 330 332 333 332 328 329 329 326 343 343 341 340 339 338 338 337 335 333 334 332 333 329 320 317 322 324 323 323 324 323 320 320 318 316 312 314
330 329 329 328 328 325 328 331 332 331 334 328 328 324 322 322 331 341 339 339 338 336 336 335 335 334 331 327 325 320 322 323 322 322 322 322 321 321 321 320 319 318 318 318
328 327 326 326 326 326 326 327 329 332 338 336 329 330 334 332 340 340 339 337 336 336 335 333 331 327 326 321 320 324 324 322 322 320 321 321 321 321 321 320 319 319 319 318
328 326 326 327 326 325 326 327 329 332 338 335 329 334 333 333 333 337 336 336 335 335 332 329 327 325 321 323 325 323 322 317 319 322 321 321 320 319 320 320 319 320 319 318
326 326 326 325 326 326 328 327 328 330 337 333 334 332 325 328 328 326 332 328 332 328 327 327 325 325 324 324 324 323 322 322 321 319 319 319 319 320 319 319 318 318 318 318
326 326 326 326 326 327 327 328 328 329 332 330 333 334 331 327 326 332 331 330 330 329 326 325 325 324 324 323 323 322 321 320 319 319 319 319 318 318 318 318 318 317 318 318
326 325 325 326 326 328 328 328 329 332 334 331 335 332 329 327 331 330 329 328 327 326 326 326 325 324 323 323 322 323 322 321 320 319 320 320 319 319 319 318 318 317 318 318
324 324 324 325 326 327 328 330 331 333 333 333 333 332 331 331 329 326 326 326 325 325 325 325 325 325 323 323 321 321 320 319 320 320 321 321 320 320 320 320 320 319 318 317
323 323 324 325 325 326 328 330 331 332 332 331 332 331 329 325 324 325 324 323 324 324 324 323 322 322 323 321 321 318 318 318 318 319 320 319 319 319 318 317 318 318 317 315
321 322 324 324 325 325 327 329 330 330 329 330 329 329 327 326 325 325 325 324 323 324 322 322 317 320 321 322 320 318 317 320 320 320 319 318 318 317 317 316 316 316 316 316
321 322 323 323 324 324 326 328 329 328 328 328 326 325 326 325 321 320 323 324 322 320 321 320 317 321 321 319 315 316 319 319 318 318 317 317 317 317 316 316 316 316 315 314
322 322 322 323 323 324 325 326 328 326 326 327 325 324 322 322 322 324 322 322 321 317 318 319 320 320 319 317 316 318 318 317 318 318 317 317 317 318 318 318 317 318 317 317
323 324 324 324 324 324 324 323 324 327 325 325 325 323 323 324 323 319 321 320 321 317 317 320 319 318 317 314 317 318 318 317 317 317 317 317 317 317 318 319 318 317 317 316
324 324 324 323 323 323 322 320 322 324 324 321 319 321 322 323 321 321 319 319 314 315 318 319 318 316 316 316 318 319 318 318 319 318 319 318 318 317 317 318 318 317 316 315
325 324 323 322 321 320 318 317 321 322 321 323 323 324 322 320 319 320 320 320 319 318 318 318 317 318 317 319 319 318 318 318 318 317 317 317 317 316 317 317 317 316 316 316
322 320 320 318 319 317 317 319 318 320 321 321 322 321 320 319 318 317 318 319 319 319 319 319 319 319 318 318 318 318 318 317 318 318 319 318 318 318 319 318 316 316 317 315
318 318 319 318 317 316 316 318 319 319 319 319 320 320 319 319 318 317 317 319 320 320 319 319 319 318 318 318 318 317 319 317 318 318 316 316 318 318 318 316 317 317 315 315
Wind_Speed
20 23 26 23 10 20 17 15 11 17 20 15 16 14 12 13 11 11 9 7 9 8 6 4 6 8 13 11 15 14 17 11 12 12 17 13 12 2 6 12 13 12 8 13
20 21 22 26 23 24 10 4 17 23 19 6 13 18 24 18 13 13 9 10 7 9 7 7 3 3 6 9 11 10 10 10 10 12 11 18 13 10 21 7 5 7 10 15
16 18 19 16 24 20 24 12 19 13 15 19 14 7 4 13 13 15 6 13 13 9 10 9 10 15 14 8 11 13 13 13 15 15 14 13 8 7 8 9 9 5 5 8
15 17 23 18 18 13 17 18 9 11 13 18 22 21 22 21 18 16 23 11 9 15 14 12 10 13 13 10 15 13 14 11 3 5 8 7 6 7 6 7 6 7 8 6
14 15 22 23 11 11 11 10 12 13 13 26 9 22 31 29 11 10 17 15 14 12 15 18 17 15 15 15 11 10 8 8 4 3 4 3 2 1 0 1 4 5 8 9
10 17 21 17 15 20 8 7 7 3 3 9 5 3 6 20 34 17 15 15 13 13 16 19 21 17 17 17 14 12 8 6 8 6 2 1 0 3 3 2 4 5 7 9
9 12 9 13 22 23 10 8 17 16 19 4 4 4 32 35 45 20 18 20 21 16 18 21 22 21 20 20 17 14 11 8 8 8 4 3 2 2 2 1 2 4 6 8
8 10 14 21 8 7 14 27 27 27 26 20 19 16 9 19 22 22 23 26 26 23 22 20 20 21 22 19 15 11 13 10 12 13 7 2 1 1 2 2 2 3 7 8
4 4 9 14 16 10 14 18 25 29 30 33 31 45 17 16 24 23 25 23 26 27 24 20 21 21 17 13 13 12 11 9 7 5 2 1 4 7 7 8 8 5 4 5
9 10 12 11 13 14 14 19 22 23 26 27 28 29 24 19 20 20 19 28 29 27 23 21 18 15 13 11 8 7 7 4 4 6 6 10 9 3 2 1 3 3 2 2
8 10 19 6 19 21 21 21 21 22 25 17 26 25 24 43 18 17 25 26 29 28 26 23 16 14 9 10 5 3 3 5 8 4 7 5 6 2 6 6 11 10 3 6
7 12 13 18 25 27 22 24 24 28 18 22 24 19 23 35 40 24 27 27 28 28 22 19 18 13 13 9 5 3 7 5 2 6 4 3 5 7 8 9 9 10 9 12
10 14 18 20 21 21 23 24 24 22 9 17 22 12 9 10 23 18 17 23 21 20 17 18 15 8 5 4 6 7 4 4 4 6 2 3 5 5 7 10 11 11 9 5
13 18 18 17 23 23 24 22 19 21 10 8 10 9 12 12 27 16 21 19 18 18 17 15 11 8 5 6 5 5 2 3 3 2 3 4 2 7 7 8 10 12 7 9
16 18 22 24 25 24 24 23 23 25 10 9 3 5 12 6 14 7 13 6 7 10 11 10 9 8 8 6 4 4 3 2 1 3 5 6 8 6 9 10 13 14 15 17
13 16 19 20 23 25 24 25 26 23 10 10 3 12 15 17 11 13 12 16 16 13 12 9 8 8 8 5 4 3 2 2 5 4 3 5 12 11 9 12 12 14 15 14
14 15 18 17 19 24 25 24 26 19 9 14 18 19 19 19 21 19 14 13 9 11 9 8 7 7 7 5 1 3 8 11 6 9 11 13 14 13 12 16 18 17 15 16
12 15 17 18 18 19 21 23 28 12 10 8 17 19 18 21 21 16 17 11 10 8 7 7 7 7 5 6 2 4 8 9 12 16 17 16 16 14 16 16 20 15 18 17
13 15 14 16 17 19 19 20 20 12 7 10 19 17 15 15 16 15 13 11 10 9 7 6 10 10 6 6 3 6 9 11 14 9 8 8 7 9 13 16 17 17 14 12
15 14 14 16 15 17 19 17 14 10 5 19 21 19 21 19 16 12 9 9 10 10 7 9 4 6 5 6 6 9 12 7 10 12 14 18 14 12 16 19 15 19 12 13
14 14 11 13 15 15 15 13 9 3 9 22 23 22 21 20 15 8 15 10 10 9 8 7 7 7 9 1 9 9 10 11 11 10 10 10 10 9 11 13 13 8 7 9
14 14 13 12 13 12 12 11 7 7 8 8 12 13 14 13 10 10 7 10 12 5 6 8 8 8 6 10 6 7 6 8 9 9 7 8 8 7 10 9 8 9 11 8
12 13 14 13 12 10 9 9 8 7 12 11 11 12 12 9 9 13 10 6 10 3 3 2 2 6 11 12 4 8 7 8 11 10 11 9 10 12 10 8 11 9 10 13
11 13 10 9 9 9 5 7 8 11 15 14 12 12 12 8 7 7 8 8 3 2 4 6 5 7 8 4 7 7 7 8 9 9 10 13 13 14 12 12 13 13 14 14
9 5 3 4 5 2 2 3 9 16 17 15 11 7 6 5 8 2 9 6 3 2 3 4 3 5 6 4 7 9 9 9 9 11 10 12 9 12 13 17 19 18 17 16
6 4 3 4 7 10 9 13 17 14 15 12 9 7 7 8 6 5 5 3 3 3 3 3 5 6 8 9 9 9 8 12 16 13 14 15 16 14 13 16 19 19 18 19
6 5 5 4 10 13 13 13 15 14 11 8 10 8 9 6 4 1 2 6 5 4 3 6 4 13 6 9 10 14 17 16 11 17 19 17 15 16 16 22 17 12 21 20
Wind_Direction
280 287 290 299 216 269 260 326 1 338 28 6 4 19 12 175 132 155 167 187 147 146 153 118 133 152 171 186 191 187 196 205 147 70 4 355 226 97 273 229 222 230 247 263
271 282 291 287 285 289 228 264 312 301 317 36 355 6 14 29 179 132 155 159 154 141 148 130 162 210 198 185 187 198 212 180 166 148 57 231 255 265 251 234 197 343 328 294
285 294 291 296 288 299 316 311 342 335 360 341 302 301 315 323 311 348 207 164 157 162 182 143 184 163 174 186 189 189 182 185 165 159 186 193 225 239 273 248 274 314 276 269
276 286 278 286 283 313 49 343 334 337 325 50 18 10 320 329 336 148 223 169 184 189 160 146 170 171 155 169 167 166 164 167 215 203 210 214 229 247 271 304 297 283 290 290
254 250 267 273 320 356 355 278 232 217 242 275 15 5 338 339 317 289 190 191 186 167 153 154 151 159 157 144 130 141 122 101 79 85 128 153 172 228 61 344 300 269 257 253
267 275 282 302 15 342 311 267 37 176 101 335 302 113 158 256 230 196 169 161 151 153 149 156 145 142 137 136 132 134 140 150 123 128 150 104 229 321 325 269 257 290 265 266
300 300 295 2 354 345 290 1 336 310 302 150 196 255 183 188 230 175 161 158 153 153 151 145 136 136 131 130 130 127 133 135 126 106 99 117 101 60 58 138 232 269 263 287
249 262 297 26 331 24 356 3 355 344 339 326 312 290 208 179 155 165 163 155 156 147 140 141 140 139 130 127 131 149 133 124 122 122 124 86 73 325 292 316 285 317 348 8
332 8 81 50 59 40 3 342 340 331 336 353 359 355 276 163 175 166 152 142 138 131 130 129 139 139 139 134 137 134 138 135 124 130 149 58 60 49 41 7 20 8 329 319
344 326 44 38 20 1 339 327 324 321 334 338 338 327 0 305 153 149 153 141 134 130 136 132 129 127 132 138 136 143 127 117 106 85 71 74 90 46 70 220 232 237 258 319
303 350 353 316 351 339 322 314 316 321 326 329 327 331 329 294 277 156 142 132 140 144 140 138 139 119 153 135 165 139 112 90 87 51 57 38 48 1 358 346 4 6 323 283
334 354 339 331 325 320 324 327 320 322 324 342 325 328 329 295 282 160 159 156 151 153 146 142 146 153 156 139 134 99 65 81 145 97 46 9 17 341 339 336 343 355 5 16
350 341 323 316 313 314 314 315 317 317 318 345 328 334 347 291 277 169 144 153 145 141 144 151 152 142 141 155 154 154 130 100 18 72 15 352 343 336 331 328 325 326 321 347
330 317 308 308 310 309 303 308 315 311 310 347 22 48 55 25 2 103 122 128 140 145 144 143 145 155 151 154 163 142 102 80 119 12 333 322 306 342 317 318 323 337 356 341
327 313 303 304 304 309 312 314 326 316 290 343 354 160 24 72 198 284 130 157 156 128 118 118 128 147 149 164 141 107 105 336 86 330 307 306 306 289 315 308 322 317 312 315
311 315 317 315 315 314 313 313 316 313 314 71 221 160 145 158 181 182 162 139 129 130 139 156 168 159 155 163 163 162 152 188 245 300 311 284 292 290 284 290 287 298 299 301
312 313 316 317 319 321 318 316 310 318 332 189 163 156 156 155 150 134 118 127 129 144 153 161 180 187 170 186 208 261 287 284 275 270 261 274 274 269 269 276 290 283 276 301
307 306 304 309 317 319 317 314 316 319 298 190 144 153 159 156 144 140 136 147 146 157 159 170 179 190 198 223 287 295 312 313 307 292 275 276 279 282 278 278 285 280 295 294
306 305 310 318 316 317 316 316 310 310 245 191 154 154 150 149 137 128 149 158 163 166 174 184 198 197 204 224 247 294 304 307 309 317 338 334 316 297 292 287 291 300 292 270
303 306 311 304 314 315 313 314 325 299 222 147 149 144 138 137 142 142 167 181 197 184 177 197 158 172 167 218 287 309 309 324 324 320 318 318 301 298 300 305 290 289 287 287
300 306 304 294 305 314 316 320 319 0 165 165 145 151 153 159 150 188 182 176 158 173 177 225 207 242 189 179 327 318 338 326 319 318 327 326 321 301 308 325 337 283 273 317
306 308 311 299 297 302 303 313 307 220 161 130 141 160 164 172 167 175 126 163 173 130 211 253 213 198 253 304 326 306 317 331 317 311 323 328 320 309 326 320 304 303 299 290
303 299 290 285 285 290 300 298 275 222 187 170 156 148 148 150 164 151 150 150 175 158 200 196 204 288 301 304 273 287 294 309 313 309 302 296 289 305 277 303 297 297 299 296
308 300 284 297 308 292 275 299 233 186 163 143 137 134 160 193 152 160 152 175 170 338 181 236 264 313 316 260 254 276 315 298 284 296 303 314 304 303 293 281 285 286 291 306
313 299 313 352 2 37 211 297 150 164 149 138 148 163 147 128 136 165 166 148 331 354 289 235 284 326 319 284 297 278 287 283 294 314 303 293 301 300 284 283 290 282 284 292
358 359 67 59 73 82 109 123 131 119 103 135 161 159 160 155 148 178 187 186 251 331 283 253 282 284 297 289 301 309 300 301 294 306 292 300 292 303 293 302 304 282 282 312
59 52 76 95 102 77 144 140 149 146 152 174 166 169 184 165 155 181 186 233 235 244 304 286 212 325 268 286 289 329 302 317 294 309 299 293 288 301 293 308 300 300 308 306